Location: Chinatown
(37.7966°N, 122.4086°W)
Time: 21:26:57
(UTC+00:00)

BlueWalker 3 - Visible Passes

Search period start: 04 October 2024 00:00
Search period end: 14 October 2024 00:00
Orbit: 473 x 486 km, 53.2° (Epoch: 04 October)

Date Brightness Start Highest point End Pass type
(mag) Time Alt. Az. Time Alt. Az. Time Alt. Az.
04 Oct 4.4 11:43:56 17° ESE 11:43:56 17° ESE 11:45:53 10° E visible
04 Oct 2.2 13:18:11 15° WSW 13:21:01 46° NW 13:24:35 10° NE visible
05 Oct 5.2 11:17:30 10° E 11:17:30 10° E 11:17:30 10° E visible
05 Oct 2.0 12:51:44 36° W 12:52:53 52° NW 12:56:30 10° NE visible
06 Oct 2.1 12:25:07 55° N 12:25:07 55° N 12:28:22 10° NE visible
07 Oct 3.7 11:58:22 27° NE 11:58:22 27° NE 12:00:10 10° NE visible
07 Oct 4.0 13:33:03 10° NW 13:35:02 14° NNW 13:37:03 10° N visible
08 Oct 4.9 11:31:29 13° NE 11:31:29 13° NE 11:31:57 10° NE visible
08 Oct 3.9 13:05:41 14° NW 13:06:44 15° NNW 13:08:56 10° NNE visible
09 Oct 3.9 12:38:42 16° NNW 12:38:42 16° NNW 12:40:45 10° NNE visible
10 Oct 4.4 12:11:37 14° N 12:11:37 14° N 12:12:32 10° NNE visible
